Regional Weather Roundup
Issued by NWS

Home | Current Version | Previous Version | Text Only | Print | Product List | Glossary On
Versions: 1 2 3 4 5 6 7 8 9 10 11 12 13 14 15 16 17 18 19 20 21 22 23 24 25 26 27 28 29 30 31 32 33 34 35 36 37 38 39 40 41 42 43 44 45 46 47 48 49 50
000
ASUS43 KDMX 200306
RWRIA

WEATHER ROUNDUP FOR IOWA
NATIONAL WEATHER SERVICE DES MOINES IA
1000 PM CDT TUE SEP 19 2017

NOTE: "FAIR" INDICATES FEW OR NO CLOUDS BELOW 12,000 FEET WITH NO
SIGNIFICANT WEATHER AND/OR OBSTRUCTIONS TO VISIBILITY.

* - THESE STATIONS ARE NOT NWS STATIONS...THUS NOT UNDER NWS
QUALITY CONTROL.  THEY ALSO DO NOT REPORT WEATHER SUCH
AS PRECIPITATION OR FOG.

IAZ001>003-012>014-020>022-031>034-043>046-200400-
   NORTHWEST IOWA

CITY           SKY/WX    TMP DP  RH WIND       PRES   REMARKS
CARROLL *      CLOUDY    75  66  73 SE13G20   29.67S
CHEROKEE *     PTCLDY    75  68  78 SE17G24   29.60F
DENISON *      MOCLDY    77  68  73 SE18G31   29.64F
LE MARS *      CLOUDY    77  68  73 SE22G32   29.53F
ORANGE CITY *  CLOUDY    75  70  83 S14G30    29.55F
SHELDON *      CLOUDY    75  66  73 SE23G31   29.54F
SIOUX CITY     CLOUDY    78  69  73 SE20G26   29.53F HX  80
SPENCER        CLOUDY    74  67  78 SE23G30   29.60F
STORM LAKE *   MOCLDY    73  66  78 SE14G28   29.63F
$$

IAZ055>058-069>071-079>083-090>094-200400-
   SOUTHWEST IOWA

CITY           SKY/WX    TMP DP  RH WIND       PRES   REMARKS
ATLANTIC *     CLOUDY    77  68  73 S13G23    29.66S
AUDUBON *      CLOUDY    75  68  78 SE9       29.68S
CLARINDA *     CLEAR     79  70  73 S10G24    29.70R HX  81
COUNCIL BLFS * CLOUDY    77  72  83 SE21      29.62R
CRESTON *      CLEAR     75 -35   1 SE15G21   29.73R
HARLAN  *      MOCLDY    77  70  78 S13G24    29.68R
LAMONI         CLEAR     77  67  71 SE12G20   29.74R
RED OAK *      CLOUDY    79  70  73 S15G22    29.66R HX  81
SHENANDOAH *   CLOUDY    79  70  73 SE14G20   29.65R HX  81
$$

IAZ047>049-059>061-072>074-084-200400-
   CENTRAL IOWA

CITY           SKY/WX    TMP DP  RH WIND       PRES   REMARKS
AMES           CLEAR     74  68  81 SE13      29.73R
ANKENY *       CLEAR     75  66  73 SE14G24   29.73R
BOONE *        CLEAR     73  66  78 SE13      29.71S
CHARITON *     CLEAR     75  68  78 SE14      29.74S
DES MOINES     CLEAR     76  67  73 SE14      29.72R
GRINNELL*      CLEAR     71  64  78 SE12      29.78S
KNOXVILLE *    CLEAR     75  66  73 SE12      29.74S
MARSHALLTOWN   CLEAR     72  65  78 SE15      29.75S
NEWTON *       CLEAR     73  66  78 SE15      29.75S
PELLA *        CLEAR     75  65  72 SE10G16   29.76S
PERRY *          N/A     75  70  84 SE10G16   29.70S
$$

IAZ004>006-015-016-023>025-035-036-200400-
   NORTH CENTRAL IOWA

CITY           SKY/WX    TMP DP  RH WIND       PRES   REMARKS
ALGONA *       PTCLDY    72  68  88 SE14G21   29.68S
CLARION *      CLOUDY    73  68  83 SE16G26   29.71R
ESTHERVILLE    CLEAR     71  66  84 SE18G25   29.63F
FORT DODGE *   CLOUDY    76  67  73 S12G23    29.70R
MASON CITY     PTCLDY    71  63  75 SE17G24   29.74S
FOREST CITY *    N/A     72  63  73 SE18G26   29.71F
IOWA FALLS *     N/A     72  65  80 SE13G18   29.75S
$$

IAZ007>011-017>019-026>030-037>042-050>054-066-200400-
   NORTHEAST IOWA

CITY           SKY/WX    TMP DP  RH WIND       PRES   REMARKS
CEDAR RAPIDS   CLEAR     71  64  78 SE10      29.81S
CHARLES CITY * CLEAR     70  66  88 SE14G22   29.78S
CLINTON *      CLEAR     68  65  90 SE8       29.88R
DECORAH *      CLEAR     68  64  88 SE12G18   29.81R
DUBUQUE        CLEAR     67  63  87 S10       29.87S
MONTICELLO *   CLEAR     68  64  88 SE8G14    29.84R
OELWEIN *      CLEAR     68  66  94 SE12G17   29.82S
WATERLOO       CLEAR     69  63  81 SE12      29.77S
$$

IAZ064-065-067-068-078-200400-
   EAST CENTRAL IOWA

CITY           SKY/WX    TMP DP  RH WIND       PRES   REMARKS
DAVENPORT      CLEAR     69  65  86 SE8       29.88S
IOWA CITY      CLEAR     71  64  78 SE8       29.84R
MT. PLEASANT * CLEAR     71  64  80 SE9       29.83S
MUSCATINE *    CLEAR     72  64  78 SE6       29.84S
QUAD CITIES    CLEAR     69  64  84 E6        29.86R
$$

IAZ062-063-075>077-085>089-095>099-200400-
   SOUTHEAST IOWA

CITY           SKY/WX    TMP DP  RH WIND       PRES   REMARKS
BURLINGTON     CLEAR     72  67  84 SE9       29.84S
FAIRFIELD *    CLEAR     73  64  73 SE12      29.80S
FORT MADISON * CLEAR     73  66  78 SE8       29.84F
KEOKUK *       CLEAR     73  66  78 SE10      29.83S
OSKALOOSA *      N/A     71  65  82 SE12      29.78F
CENTERVILLE *    N/A     73  66  78 SE14      29.79S
OTTUMWA        CLEAR     73  66  78 SE12      29.78S
WASHINGTON *   CLEAR     72  68  88 SE10      29.83F
$$

ABBREVIATIONS USED IN REMARKS
   TC - TEMPERATURES IN CELSIUS
  WCI - WIND CHILL INDEX
   HX - HEAT INDEX
  VSB - VISIBILITY
$$





USA.gov is the U.S. government's official web portal to all federal, state and local government web resources and services.